Date,TemperatureHighF,TemperatureAvgF,TemperatureLowF,DewpointHighF,DewpointAvgF,DewpointLowF,HumidityHigh,HumidityAvg,HumidityLow,PressureMaxIn,PressureMinIn,WindSpeedMaxMPH,WindSpeedAvgMPH,GustSpeedMaxMPH,PrecipitationSumIn
2013-1-1,33,24,14,25,10,0,71,55,43,30.09,29.92,8,3,15,0.00
2013-1-2,26,21,16,12,9,4,63,59,55,30.22,30.03,4,2,11,0.00
2013-1-3,31,24,16,22,15,4,74,67,59,30.21,29.99,7,2,18,0.00
2013-1-4,33,30,25,23,20,14,69,66,61,30.10,29.91,12,6,28,0.00
2013-1-5,36,31,27,25,21,18,73,68,64,30.32,30.06,6,3,14,0.01
2013-1-6,36,35,33,30,29,24,80,78,65,30.16,29.91,6,4,20,0.05
2013-1-7,34,30,26,26,21,16,77,68,63,30.42,30.16,10,4,21,0.00
2013-1-8,38,34,30,30,25,23,79,72,68,30.33,30.17,10,4,20,0.00
2013-1-9,43,37,30,34,28,23,75,71,62,30.41,30.00,12,4,32,0.01
2013-1-10,40,36,31,28,25,23,72,65,59,30.62,30.39,4,1,10,0.00
2013-1-11,48,42,35,43,34,24,85,74,61,30.39,29.89,5,2,13,0.04
2013-1-12,57,50,45,49,45,41,86,81,73,30.03,29.95,9,2,21,0.00
2013-1-13,60,52,45,56,48,40,93,86,78,29.98,29.77,9,2,20,0.52
2013-1-14,45,33,27,41,25,17,89,71,61,30.42,29.81,8,3,24,0.06
2013-1-15,31,28,26,20,18,16,70,65,54,30.44,30.18,4,1,8,0.00
2013-1-16,38,32,28,28,22,17,70,66,60,30.19,29.81,8,2,17,0.00
2013-1-17,34,26,17,25,14,7,70,61,54,30.21,29.89,6,4,16,0.00
2013-1-18,34,22,13,20,9,2,66,58,49,30.46,30.03,10,3,24,0.00
2013-1-19,46,40,34,31,27,19,66,58,47,30.04,29.58,11,6,26,0.02
2013-1-20,46,30,18,34,14,3,70,52,40,30.13,29.51,12,7,34,0.02
2013-1-21,23,18,12,10,3,-6,62,49,42,30.11,29.89,6,2,16,0.00
2013-1-22,14,9,6,-6,-10,-14,45,40,31,30.22,29.95,7,4,24,0.00
2013-1-23,18,12,6,-3,-7,-12,50,41,31,30.25,30.11,4,2,11,0.00
2013-1-24,15,12,6,5,-3,-11,68,50,41,30.55,30.11,8,2,16,0.00
2013-1-25,21,14,6,6,0,-10,61,53,47,30.53,30.09,3,1,10,0.00
2013-1-26,28,19,12,14,7,0,63,59,50,30.43,30.11,4,1,9,0.00
2013-1-27,30,22,12,16,10,2,70,60,53,30.57,30.34,3,0,8,0.00
2013-1-28,41,35,26,38,29,13,92,80,55,30.33,29.86,6,2,14,0.15
2013-1-29,52,41,34,49,38,30,92,89,85,30.07,29.71,4,1,11,0.72
2013-1-30,61,54,50,52,49,45,92,81,68,29.71,29.09,10,4,101,0.35
2013-1-31,50,29,22,46,18,5,88,63,40,29.76,29.10,10,4,27,0.07
2013-2-1,24,20,16,11,8,1,68,59,50,30.21,29.76,9,4,18,0.00
2013-2-2,23,19,15,14,9,0,73,63,50,30.20,29.98,6,2,17,0.00
2013-2-3,27,17,5,14,6,-6,72,61,51,29.99,29.82,3,1,9,0.00
2013-2-4,24,17,11,8,4,-1,61,56,49,30.00,29.91,4,2,14,0.00
2013-2-5,30,22,11,16,10,-1,68,61,49,29.97,29.85,4,1,17,0.00
2013-2-6,27,23,15,18,10,3,70,57,45,30.38,29.90,10,3,18,0.00
2013-2-7,32,25,15,16,13,-18,70,60,10,30.38,30.07,8,3,73,0.00
2013-2-8,32,25,11,28,17,-35,84,74,10,30.18,29.81,11,4,18,0.00
2013-2-9,25,18,9,14,8,-2,72,65,58,30.43,30.18,7,2,42,0.00
2013-2-10,38,24,6,24,11,-4,72,59,41,30.41,29.94,6,1,11,0.00
2013-2-11,46,38,34,39,28,23,86,69,55,29.94,29.62,10,5,27,0.22
2013-2-12,36,33,31,25,23,-16,71,66,10,30.00,29.76,7,4,19,0.00
2013-2-13,37,30,21,23,19,12,71,62,50,29.93,29.77,3,1,8,0.00
2013-2-14,38,31,20,31,23,11,81,71,59,29.91,29.78,8,2,17,0.08
2013-2-15,36,31,20,29,19,9,74,61,48,30.11,29.78,8,4,19,0.00
2013-2-16,32,24,18,20,13,7,77,62,50,30.10,29.96,10,1,24,0.00
2013-2-17,21,16,13,15,2,-5,77,54,39,30.24,29.96,9,5,100,0.00
2013-2-18,34,21,5,19,6,-8,63,51,42,30.29,29.86,6,1,11,0.00
2013-2-19,41,34,24,35,24,12,85,67,53,29.87,29.58,10,5,31,0.38
2013-2-20,25,22,19,12,9,6,67,57,49,30.14,29.80,8,5,23,0.00
2013-2-21,27,21,16,10,7,2,62,54,47,30.43,30.11,9,3,18,0.00
2013-2-22,35,28,21,28,19,10,76,67,56,30.41,29.99,6,2,14,0.01
2013-2-23,38,34,29,30,25,20,74,70,59,29.99,29.90,6,2,14,0.01
2013-2-24,34,31,28,24,21,18,74,66,59,30.13,29.89,5,2,17,0.02
2013-2-25,39,33,28,26,22,18,71,65,56,30.26,30.13,3,1,7,0.00
2013-2-26,44,35,26,30,23,17,83,64,43,30.25,29.72,10,4,23,0.41
2013-2-27,36,34,33,31,29,28,83,82,81,29.74,29.61,10,2,22,0.21
2013-2-28,37,34,32,32,29,25,84,81,74,29.82,29.57,6,2,15,0.35
2013-3-1,32,28,25,25,18,14,75,67,58,30.02,29.82,8,4,15,0.00
2013-3-2,27,24,21,15,13,11,67,62,59,30.01,29.94,7,4,16,0.00
2013-3-3,28,24,21,15,13,11,73,62,51,29.98,29.91,6,4,17,0.00
2013-3-4,33,26,20,19,14,10,66,60,51,30.11,29.97,8,4,19,0.00
2013-3-5,33,27,20,20,16,10,69,63,53,30.14,29.97,8,3,15,0.00
2013-3-6,41,34,27,30,26,17,80,70,63,30.19,29.97,8,4,17,0.00
2013-3-7,38,35,32,30,27,24,80,73,59,30.32,30.17,4,2,8,0.01
2013-3-8,42,35,28,28,24,18,81,65,47,30.44,30.32,5,2,12,0.01
2013-3-9,45,35,25,32,25,16,81,67,48,30.44,30.19,4,1,8,0.00
2013-3-10,61,49,36,34,28,13,64,44,31,30.19,29.51,6,2,15,0.00
2013-3-11,61,52,46,40,31,28,81,46,29,29.97,29.65,6,2,17,0.12
2013-3-12,46,38,34,40,30,24,83,73,64,29.93,29.73,7,4,22,0.05
2013-3-13,37,32,23,30,21,5,75,65,45,30.05,29.86,13,4,30,0.06
2013-3-14,92,27,22,11,7,-1,54,43,26,30.14,30.05,13,6,30,0.00
2013-3-15,40,33,26,30,21,11,72,62,45,30.08,29.80,9,4,21,0.00
2013-3-16,122,27,22,18,13,9,62,54,46,30.02,29.87,6,3,15,0.00
2013-3-17,29,26,22,15,9,0,65,51,31,30.35,30.02,6,2,100,0.00
2013-3-18,37,28,21,29,14,3,79,55,33,30.34,29.66,8,4,17,0.01
2013-3-19,36,32,25,30,22,-15,81,66,47,29.88,29.66,8,4,21,0.08
2013-3-20,34,28,23,19,14,9,70,57,44,29.88,29.83,6,3,16,0.05
2013-3-21,32,26,19,23,14,9,71,61,47,29.87,29.75,6,3,19,0.01
2013-3-22,35,30,26,24,20,15,72,66,57,29.99,29.80,7,3,16,0.05
2013-3-23,39,34,25,24,20,15,72,57,45,30.08,29.97,11,6,19,0.01
2013-3-24,37,32,23,24,17,14,75,55,39,30.08,29.75,7,3,26,0.00
2013-3-25,42,36,32,28,23,19,70,59,45,29.79,29.65,8,4,15,0.00
2013-3-26,48,40,31,27,23,16,69,54,31,30.00,29.79,7,3,14,0.00
2013-3-27,45,37,31,31,26,-21,80,64,44,30.11,29.98,10,3,20,0.07
2013-3-28,45,38,33,32,29,22,80,71,41,30.25,30.10,6,2,12,0.04
2013-3-29,51,41,33,33,28,23,73,60,41,30.25,30.17,6,2,14,0.00
2013-3-30,53,39,27,30,23,18,75,53,32,30.25,30.04,6,2,49,0.05
2013-3-31,59,46,36,39,29,18,81,53,31,30.04,29.63,8,3,19,0.00
2013-4-1,43,35,28,38,20,9,82,57,33,30.02,29.62,11,5,24,0.05
2013-4-2,37,30,24,16,12,8,60,47,32,30.17,30.01,11,4,24,0.00
2013-4-3,36,30,26,14,11,4,54,44,27,30.43,30.17,11,5,21,0.00
2013-4-4,50,36,24,21,13,7,67,42,21,30.38,29.95,8,3,18,0.00
2013-4-5,42,36,31,26,19,13,63,50,35,30.22,29.92,9,3,20,0.00
2013-4-6,47,36,23,24,17,10,63,46,24,30.34,29.99,4,2,13,0.00
2013-4-7,67,53,42,44,30,15,61,43,26,30.09,29.73,14,6,38,0.00
2013-4-8,59,46,33,45,33,22,84,63,39,30.14,29.79,7,2,17,0.22
2013-4-9,60,49,43,44,42,38,89,78,53,30.16,29.83,5,2,17,0.44
2013-4-10,46,42,39,43,40,35,91,90,85,30.07,29.88,8,4,16,0.41
2013-4-11,39,35,32,35,29,24,86,80,61,30.13,29.89,10,5,24,0.26
2013-4-12,44,39,33,41,34,-20,91,84,77,29.91,29.53,9,4,19,0.24
2013-4-13,44,40,38,36,34,32,84,78,69,29.97,29.79,8,4,21,0.01
2013-4-14,48,41,34,32,28,25,78,60,47,30.19,29.97,11,2,14,0.00
2013-4-15,67,52,38,47,37,26,65,57,42,30.16,30.01,6,3,14,0.00
2013-4-16,61,55,47,54,45,33,86,69,57,30.27,29.98,10,4,25,0.08
2013-4-17,56,46,35,37,30,27,77,55,34,30.40,30.21,7,3,17,0.00
2013-4-18,81,63,47,60,48,28,77,57,46,30.24,29.70,8,4,22,0.00
2013-4-19,69,56,41,60,47,33,88,72,61,29.79,29.38,11,5,35,0.11
2013-4-20,41,37,33,34,27,-20,86,67,49,30.45,29.78,8,5,23,0.14
2013-4-21,45,36,27,26,21,14,74,54,39,30.70,30.45,7,2,13,0.00
2013-4-22,61,48,34,34,27,17,68,46,22,30.58,30.32,6,2,13,0.00
2013-4-23,65,54,44,55,34,27,80,48,24,30.33,29.92,24,2,36,0.00
2013-4-24,61,53,44,54,44,37,94,75,47,30.09,29.67,106,10,131,0.26
2013-4-25,55,46,34,42,38,26,94,75,41,30.34,30.09,8,5,17,0.11
2013-4-26,58,45,33,39,31,24,92,62,35,30.51,30.34,5,1,13,0.01
2013-4-27,70,55,38,42,34,25,65,48,28,30.45,30.22,9,2,74,0.00
2013-4-28,74,58,46,50,42,36,78,58,26,30.22,30.00,8,3,56,0.06
2013-4-29,64,57,52,55,51,47,84,78,69,30.05,29.96,5,2,14,0.01
2013-4-30,74,64,55,58,53,50,90,68,48,30.22,30.05,6,2,14,0.00
2013-5-1,79,65,55,56,50,42,75,59,38,30.35,30.22,6,2,14,0.00
2013-5-2,79,65,50,48,41,33,75,45,20,30.43,30.26,7,2,14,0.00
2013-5-3,80,67,53,48,43,37,63,42,24,30.31,30.19,7,3,14,0.00
2013-5-4,73,63,55,45,40,28,62,45,19,30.30,30.16,7,2,15,0.00
2013-5-5,75,64,50,48,42,37,76,48,26,30.24,30.10,6,2,61,0.00
2013-5-6,74,63,50,43,34,23,60,36,16,30.19,30.06,9,2,13,0.00
2013-5-7,77,64,50,54,48,39,79,57,43,30.15,30.04,6,2,14,0.00
2013-5-8,76,64,56,62,54,10,93,72,10,30.07,29.98,6,2,17,0.05
2013-5-9,77,63,54,60,55,49,97,77,41,29.99,29.92,6,2,14,0.01
2013-5-10,76,61,51,64,55,47,94,81,57,29.98,29.74,9,2,18,0.09
2013-5-11,60,53,48,58,48,-19,96,85,71,29.82,29.71,6,3,18,0.02
2013-5-12,51,44,37,48,35,30,91,72,51,30.00,29.73,10,5,22,0.11
2013-5-13,52,42,34,38,32,25,84,68,44,30.17,30.00,6,3,15,0.01
2013-5-14,59,48,34,40,33,26,88,58,31,30.18,29.93,5,2,13,0.00
2013-5-15,81,64,51,61,48,40,78,57,33,29.93,29.58,14,4,29,0.02
2013-5-16,76,64,50,52,42,24,80,50,18,30.07,29.42,12,3,21,0.02
2013-5-17,67,56,43,44,40,34,84,57,35,30.25,30.06,5,2,11,0.00
2013-5-18,76,63,51,47,42,38,65,48,29,30.27,30.14,6,2,14,0.00
2013-5-19,84,70,58,62,55,43,81,61,41,30.15,30.00,5,1,10,0.00
2013-5-20,89,75,61,69,62,54,89,67,43,30.07,29.89,11,1,24,0.05
2013-5-21,89,73,62,72,63,55,91,73,40,29.97,29.78,8,2,17,0.02
2013-5-22,89,75,63,68,62,57,90,67,41,29.83,29.68,6,2,18,0.00
2013-5-23,79,63,43,65,56,42,98,80,56,29.99,29.73,8,4,17,0.24
2013-5-24,52,44,40,42,36,33,99,75,50,30.28,29.99,7,4,18,0.09
2013-5-25,59,50,40,39,35,29,85,57,33,30.32,30.24,9,4,18,0.00
2013-5-26,65,54,42,40,32,22,78,48,20,30.29,30.22,8,3,18,0.00
2013-5-27,71,58,40,45,36,30,88,48,25,30.31,30.15,3,1,8,0.00
2013-5-28,65,58,53,63,54,38,99,86,52,30.18,29.93,8,1,21,1.06
2013-5-29,81,70,62,68,64,59,99,83,61,30.05,29.91,6,2,18,0.57
2013-5-30,88,75,63,71,65,58,90,71,50,30.15,30.04,6,2,100,0.00
2013-5-31,89,77,67,69,66,61,93,69,45,30.09,29.97,8,2,17,0.09
2013-6-1,86,74,66,72,67,64,96,82,57,29.99,29.81,9,3,30,0.51
2013-6-2,76,67,54,67,62,48,99,85,65,29.96,29.70,10,4,54,0.63
2013-6-3,67,55,47,52,45,41,84,69,47,30.08,29.95,6,3,13,0.00
2013-6-4,71,59,49,51,43,33,78,57,32,30.21,30.08,24,2,100,0.00
2013-6-5,72,60,52,50,44,36,83,58,35,30.25,30.09,7,2,14,0.00
2013-6-6,59,56,52,59,52,40,99,89,51,30.09,29.86,8,2,14,0.40
2013-6-7,60,56,52,58,55,51,99,96,89,29.91,29.86,5,2,9,0.02
2013-6-8,67,60,56,60,57,53,99,90,74,30.11,29.88,5,2,12,0.02
2013-6-9,79,65,53,59,55,51,96,72,42,30.24,30.11,4,1,10,0.00
2013-6-10,73,67,64,69,63,56,99,88,73,30.12,29.73,4,1,11,0.66
2013-6-11,74,66,59,64,60,55,99,83,61,29.90,29.71,6,3,15,0.07
2013-6-12,80,69,57,61,57,52,91,67,41,29.97,29.79,5,1,9,0.00
2013-6-13,68,62,57,61,58,54,99,87,65,29.84,29.56,9,3,18,0.54
2013-6-14,75,64,55,63,57,50,99,78,53,30.04,29.84,5,2,16,0.01
2013-6-15,77,66,52,58,52,46,87,64,39,30.11,29.98,5,2,12,0.00
2013-6-16,81,69,63,68,62,56,95,78,58,29.99,29.76,6,2,17,0.05
2013-6-17,82,71,60,66,59,54,94,68,42,29.98,29.85,6,2,14,0.00
2013-6-18,71,65,58,57,51,44,86,64,39,30.08,29.93,6,3,14,0.00
2013-6-19,70,63,55,52,45,39,85,54,32,30.22,30.07,5,2,13,0.00
2013-6-20,79,66,50,56,48,44,87,56,32,30.29,30.22,6,1,11,0.00
2013-6-21,85,71,54,58,52,44,89,54,26,30.30,30.19,3,1,9,0.00
2013-6-22,88,76,65,70,63,49,88,64,52,30.19,30.03,7,2,17,0.30
2013-6-23,89,79,68,73,68,62,97,72,42,30.11,30.01,7,2,17,0.06
2013-6-24,88,79,71,73,68,64,87,70,50,30.09,29.97,6,2,16,0.00
2013-6-25,84,76,70,72,68,64,85,77,62,29.99,29.83,5,2,14,0.00
2013-6-26,86,76,68,73,68,64,94,76,58,29.88,29.82,5,2,14,0.00
2013-6-27,78,71,67,71,66,63,96,86,73,29.85,29.68,3,1,10,0.31
2013-6-28,70,67,63,68,66,62,99,97,89,29.68,29.54,3,1,8,1.03
2013-6-29,81,68,62,68,63,60,99,84,59,29.75,29.53,5,2,11,0.05
2013-6-30,77,70,63,66,61,58,92,76,54,29.97,29.74,6,2,11,0.00
2013-7-1,71,67,62,62,60,56,88,77,65,30.11,29.97,7,4,15,0.00
2013-7-2,74,67,60,66,61,56,88,81,73,30.12,30.06,5,2,12,0.00
2013-7-3,84,74,63,74,68,61,95,82,68,30.18,30.10,4,1,10,0.12
2013-7-4,86,75,70,74,70,68,96,85,63,30.22,30.14,5,1,14,0.14
2013-7-5,85,76,71,74,70,67,96,82,61,30.17,30.09,5,2,15,0.11
2013-7-6,88,77,68,74,69,65,93,78,54,30.19,30.06,4,1,11,0.00
2013-7-7,82,75,71,73,70,67,95,83,64,30.10,29.98,6,2,17,0.09
2013-7-8,87,77,69,74,70,67,94,80,60,30.09,30.01,5,1,13,0.00
2013-7-9,82,75,71,73,71,69,94,86,72,30.07,29.93,3,1,11,0.02
2013-7-10,88,77,70,76,71,56,94,81,61,29.93,29.72,7,4,21,0.00
2013-7-11,80,71,62,61,58,55,83,63,45,30.06,29.89,6,2,14,0.00
2013-7-12,79,72,64,67,63,59,92,76,60,30.22,30.06,4,1,10,0.00
2013-7-13,85,74,62,69,64,58,93,72,52,30.28,30.19,5,2,11,0.00
2013-7-14,88,79,67,74,70,64,93,75,59,30.33,30.27,4,1,10,0.00
2013-7-15,91,82,72,75,67,48,92,64,24,30.34,30.27,4,1,11,0.00
2013-7-16,92,80,72,74,69,65,92,71,42,30.33,30.29,3,1,8,0.00
2013-7-17,95,85,76,79,75,72,93,73,54,30.27,30.12,4,1,7,0.00
2013-7-18,95,85,76,78,75,73,91,73,57,30.15,29.98,5,2,11,0.00
2013-7-19,92,83,69,78,74,65,98,76,55,29.99,29.75,11,5,24,3.25
2013-7-20,83,74,69,71,64,56,99,74,41,29.94,29.75,7,2,14,0.59
2013-7-21,79,72,66,64,61,58,83,68,51,30.04,29.94,5,2,12,0.00
2013-7-22,81,72,63,67,63,59,89,74,57,30.03,29.81,4,1,10,0.00
2013-7-23,85,74,64,72,66,55,93,79,57,29.81,29.67,6,2,17,0.20
2013-7-24,70,63,58,57,51,47,82,64,45,30.07,29.78,7,3,16,0.00
2013-7-25,78,66,54,60,53,48,92,66,37,30.16,30.07,6,1,12,0.00
2013-7-26,81,69,54,61,55,49,91,64,39,30.16,30.02,5,1,11,0.00
2013-7-27,77,70,64,67,63,53,92,79,63,30.02,29.82,5,1,11,0.11
2013-7-28,76,68,60,66,57,52,93,71,46,30.01,29.81,6,2,15,0.02
2013-7-29,73,65,59,62,57,54,91,76,59,30.19,29.99,5,1,11,0.01
2013-7-30,77,67,58,63,58,53,91,72,51,30.24,30.17,5,1,10,0.00
2013-7-31,80,70,59,67,61,56,93,75,50,30.19,29.96,4,1,8,0.00
2013-8-1,79,71,65,69,64,59,97,80,53,29.96,29.81,6,2,16,0.34
2013-8-2,81,69,58,66,60,56,95,76,47,29.92,29.85,8,2,17,0.06
2013-8-3,79,68,60,64,57,52,95,70,41,30.00,29.87,6,3,13,0.00
2013-8-4,73,65,56,59,53,44,90,66,41,30.12,29.99,6,2,15,0.00
2013-8-5,78,64,52,59,52,48,92,66,43,30.16,30.05,3,1,10,0.00
2013-8-6,82,70,58,62,58,50,89,66,40,30.08,29.99,5,1,10,0.00
2013-8-7,82,74,67,70,65,60,89,74,61,30.00,29.88,6,2,15,0.06
2013-8-8,81,73,66,73,69,66,98,88,70,30.01,29.91,6,1,14,0.81
2013-8-9,79,70,63,68,63,58,95,80,52,29.98,29.92,4,2,11,0.06
2013-8-10,74,66,59,61,54,48,86,65,46,30.14,29.97,5,2,13,0.00
2013-8-11,78,66,54,59,54,50,91,68,44,30.18,30.07,4,1,10,0.00
2013-8-12,77,69,60,67,61,55,90,77,61,30.09,29.88,6,1,14,0.00
2013-8-13,69,65,56,66,58,48,99,79,54,29.95,29.79,8,3,21,0.33
2013-8-14,70,61,53,54,49,43,88,67,39,30.14,29.93,7,3,19,0.00
2013-8-15,76,64,52,57,52,46,84,66,45,30.17,30.10,6,2,17,0.00
2013-8-16,78,66,54,62,55,48,91,70,48,30.25,30.15,4,1,9,0.00
2013-8-17,81,69,55,62,57,46,92,69,30,30.33,30.24,5,1,12,0.00
2013-8-18,83,71,60,65,59,55,88,68,42,30.28,30.14,3,1,8,0.00
2013-8-19,83,70,60,65,60,56,94,72,48,30.16,30.07,4,1,8,0.00
2013-8-20,84,73,63,70,64,58,96,75,52,30.17,30.09,5,2,14,0.00
2013-8-21,86,75,66,71,66,63,93,74,50,30.20,30.06,5,1,15,0.00
2013-8-22,84,75,68,74,65,53,94,72,48,30.07,29.96,7,2,16,0.00
2013-8-23,75,68,59,61,55,49,89,65,42,30.23,30.04,6,2,13,0.00
2013-8-24,78,66,54,58,54,50,89,66,40,30.39,30.23,6,1,11,0.00
2013-8-25,82,70,57,64,57,51,90,65,40,30.36,30.16,5,2,17,0.00
2013-8-26,80,72,68,74,69,64,98,89,75,30.18,29.98,5,2,14,0.53
2013-8-27,85,74,66,76,71,65,99,90,71,29.99,29.90,3,1,10,0.79
2013-8-28,81,74,70,73,71,68,98,90,73,30.01,29.89,5,2,13,0.01
2013-8-29,83,74,66,73,68,64,97,81,53,30.09,30.00,4,1,11,0.00
2013-8-30,82,75,67,74,69,64,97,83,64,30.04,29.78,4,2,12,0.07
2013-8-31,80,74,70,71,69,66,94,85,69,29.88,29.75,5,2,12,0.00
2013-9-1,82,74,68,72,69,66,95,85,67,29.88,29.79,4,1,9,0.08
2013-9-2,82,71,65,73,66,55,97,84,63,29.85,29.75,8,2,17,0.01
2013-9-3,69,64,57,60,57,52,86,79,69,30.00,29.84,5,2,13,0.00
2013-9-4,78,67,56,64,58,52,92,76,51,30.04,29.98,6,2,16,0.02
2013-9-5,65,59,51,60,46,36,91,65,37,30.28,30.03,6,2,14,0.00
2013-9-6,70,58,45,52,46,40,91,68,43,30.33,30.12,4,1,13,0.00
2013-9-7,67,63,57,66,59,51,98,87,75,30.11,29.91,5,1,14,0.26
2013-9-8,67,63,54,66,53,46,98,72,52,30.15,29.91,7,3,16,0.00
2013-9-9,73,62,50,65,54,46,91,76,59,30.16,29.97,3,1,9,0.00
2013-9-10,86,78,68,75,71,66,92,79,62,30.05,29.92,9,4,17,0.05
2013-9-11,86,79,71,74,71,65,90,77,55,30.07,29.92,7,3,20,0.05
2013-9-12,76,70,62,70,65,55,94,86,73,29.98,29.79,6,2,14,0.15
2013-9-13,62,55,51,56,48,41,85,78,68,30.09,29.83,6,3,16,0.00
2013-9-14,63,54,47,49,42,29,84,65,31,30.17,30.07,6,2,11,0.00
2013-9-15,69,59,50,58,52,46,93,79,61,30.17,30.09,6,2,17,0.11
2013-9-16,56,52,44,54,48,40,96,86,64,30.41,30.10,6,2,16,0.02
2013-9-17,64,52,39,50,43,37,95,75,46,30.50,30.30,3,1,10,0.00
2013-9-18,72,59,47,53,48,43,88,70,38,30.30,30.13,4,1,11,0.00
2013-9-19,75,64,54,63,56,48,91,78,60,30.15,30.03,4,1,11,0.00
2013-9-20,80,69,58,69,63,54,95,83,67,30.04,29.76,4,1,12,0.00
2013-9-21,73,62,52,68,61,50,99,95,80,29.81,29.65,10,2,24,1.72
2013-9-22,55,52,49,51,45,40,97,80,63,30.08,29.81,6,2,14,0.00
2013-9-23,58,52,46,46,42,40,89,70,51,30.20,30.08,5,1,12,0.00
2013-9-24,61,52,42,51,43,34,96,76,38,30.19,30.05,5,1,11,0.00
2013-9-25,67,54,43,55,46,39,96,75,43,30.06,29.99,5,1,9,0.00
2013-9-26,68,56,45,54,48,42,95,75,54,30.19,30.03,4,1,11,0.00
2013-9-27,67,59,52,58,52,49,92,79,68,30.30,30.19,4,2,10,0.00
2013-9-28,73,62,52,59,54,50,94,78,51,30.30,30.17,3,1,8,0.00
2013-9-29,74,63,54,59,54,49,86,73,54,30.17,30.02,5,1,13,0.00
2013-9-30,73,65,61,63,60,56,91,84,67,30.03,29.98,6,2,13,0.01
2013-10-1,73,65,57,63,60,55,95,84,67,30.06,29.95,6,2,16,0.00
2013-10-2,75,68,59,64,59,43,92,76,43,30.13,29.96,6,2,11,0.00
2013-10-3,72,61,49,55,48,40,91,63,40,30.16,30.03,3,1,8,0.00
2013-10-4,69,65,62,68,64,56,98,95,81,30.10,30.01,2,0,5,0.54
2013-10-5,64,61,59,62,60,57,99,95,88,30.13,30.02,4,2,10,0.27
2013-10-6,78,68,59,72,65,57,99,90,74,30.03,29.70,4,2,13,0.28
2013-10-7,72,59,50,64,52,42,96,79,53,30.09,29.68,9,3,26,0.41
2013-10-8,62,53,45,50,46,42,95,79,57,30.36,30.09,4,1,8,0.00
2013-10-9,65,54,44,50,46,41,94,75,45,30.42,30.29,4,1,8,0.00
2013-10-10,66,54,45,56,49,42,96,84,58,30.30,30.17,4,1,11,0.00
2013-10-11,67,56,47,58,49,43,97,79,53,30.21,30.14,4,1,10,0.00
2013-10-12,72,59,46,56,47,41,93,68,33,30.21,30.13,4,1,10,0.00
2013-10-13,68,63,59,61,54,44,95,75,53,30.31,30.17,4,1,11,0.38
2013-10-14,60,56,49,58,48,42,94,77,52,30.39,30.31,4,2,12,0.00
2013-10-15,68,58,46,57,52,43,92,81,65,30.32,29.95,4,1,11,0.00
2013-10-16,68,62,52,62,58,48,96,87,77,29.95,29.77,7,2,21,0.37
2013-10-17,62,55,51,52,50,47,96,85,68,29.91,29.72,3,1,11,0.35
2013-10-18,58,52,46,49,46,41,96,80,54,29.93,29.76,7,2,17,0.01
2013-10-19,54,50,42,51,46,41,96,88,79,29.90,29.70,6,1,12,0.33
2013-10-20,56,46,39,46,42,37,96,84,59,29.99,29.81,5,2,14,0.01
2013-10-21,62,55,47,48,46,43,91,72,49,29.98,29.80,9,3,24,0.24
2013-10-22,50,44,39,48,37,30,93,78,54,29.89,29.79,8,2,18,0.09
2013-10-23,46,42,36,39,35,29,86,76,65,29.86,29.75,8,1,17,0.04
2013-10-24,47,39,33,36,33,28,86,78,61,30.07,29.83,6,3,17,0.00
2013-10-25,49,42,36,40,35,32,93,79,57,30.22,30.06,7,2,20,0.00
2013-10-26,45,43,42,42,37,30,94,80,61,30.14,29.79,11,5,28,0.44
2013-10-27,47,41,36,40,36,33,94,82,68,30.07,29.85,6,2,14,0.01
2013-10-28,45,41,33,38,30,20,84,66,40,30.42,30.04,7,2,16,0.00
2013-10-29,45,39,32,35,28,23,75,65,47,30.48,30.31,4,1,10,0.00
2013-10-30,55,46,40,42,39,35,88,76,53,30.31,30.09,4,1,10,0.01
2013-10-31,65,57,46,60,53,40,96,86,70,30.09,29.35,11,3,24,0.71
2013-11-1,62,55,48,58,48,42,94,80,65,29.70,29.17,12,6,32,0.28
2013-11-2,48,44,37,44,40,30,93,86,75,30.06,29.64,7,3,15,0.19
2013-11-3,37,33,27,30,22,13,75,62,42,30.55,30.07,5,2,14,0.00
2013-11-4,42,34,25,26,21,18,81,59,42,30.64,30.43,6,2,12,0.00
2013-11-5,56,47,36,38,32,20,68,57,48,30.46,30.32,4,2,12,0.00
2013-11-6,64,55,48,55,44,33,93,67,53,30.32,29.82,7,3,21,0.33
2013-11-7,55,43,38,53,36,30,92,78,66,30.05,29.83,8,4,19,0.08
2013-11-8,42,38,34,33,29,27,82,70,61,30.26,30.01,8,3,19,0.01
2013-11-9,51,44,33,46,33,25,85,67,50,30.25,29.81,7,2,20,0.11
2013-11-10,48,43,37,41,34,28,78,70,60,30.22,29.82,11,5,27,0.06
2013-11-11,45,38,32,39,31,19,88,77,59,30.22,29.96,9,4,21,0.20
2013-11-12,33,30,27,21,16,10,70,58,45,30.43,30.17,10,5,20,0.00
2013-11-13,39,33,24,28,20,11,74,61,43,30.45,30.09,11,4,27,0.02
2013-11-14,47,43,38,33,28,25,70,57,43,30.13,30.01,12,7,27,0.00
2013-11-15,51,46,43,37,32,27,73,58,45,30.13,30.05,10,4,21,0.00
2013-11-16,56,50,39,42,38,31,80,64,56,30.24,29.99,5,2,12,0.00
2013-11-17,62,57,53,55,50,42,89,78,65,29.99,29.35,12,3,30,0.37
2013-11-18,54,44,36,44,34,25,81,67,58,29.99,29.40,13,6,31,0.01
2013-11-19,38,35,28,25,21,17,68,58,48,30.48,29.99,8,4,20,0.00
2013-11-20,41,32,23,23,18,14,73,58,42,30.57,30.41,6,2,14,0.00
2013-11-21,44,40,33,37,27,13,86,62,41,30.41,30.25,4,2,12,0.15
2013-11-22,47,42,32,45,39,24,93,87,69,30.25,30.04,10,3,24,0.24
2013-11-23,32,28,19,25,16,2,78,62,43,30.27,30.08,14,6,27,0.00
2013-11-24,26,20,16,10,6,2,62,53,36,30.46,30.27,8,4,21,0.00
2013-11-25,36,29,19,28,14,4,79,55,42,30.41,30.10,9,5,30,0.00
2013-11-26,34,33,32,30,28,27,85,82,80,30.15,29.85,3,1,11,0.01
2013-11-27,33,30,24,29,22,12,86,72,51,30.00,29.72,10,2,21,0.00
2013-11-28,29,24,19,17,13,8,72,61,51,30.43,30.00,8,1,17,0.00
2013-11-29,27,23,18,18,13,5,75,64,52,30.73,30.43,4,1,7,0.00
2013-11-30,36,29,20,25,17,9,69,61,54,30.69,30.17,5,2,13,0.01
2013-12-1,40,37,34,33,29,25,80,74,69,30.18,29.97,3,1,8,0.25
2013-12-2,37,34,28,31,29,21,83,80,75,29.97,29.90,3,0,7,0.00
2013-12-3,37,30,23,26,22,16,83,71,53,30.02,29.94,5,1,11,0.00
2013-12-4,47,39,34,41,34,26,87,80,71,30.03,29.84,5,2,12,0.04
2013-12-5,59,50,38,52,42,29,80,72,54,30.07,29.73,8,4,17,0.00
2013-12-6,38,34,30,31,22,18,76,62,55,30.29,30.05,5,3,11,0.00
2013-12-7,30,26,20,19,13,7,63,56,46,30.59,30.29,7,3,100,0.00
2013-12-8,28,24,18,17,10,5,65,55,43,30.59,30.16,5,2,17,0.00
2013-12-9,37,32,27,33,25,-21,85,75,60,30.16,29.86,8,4,21,0.04
2013-12-10,28,23,19,16,8,3,65,53,42,30.10,29.92,7,4,20,0.00
2013-12-11,26,21,15,13,7,1,65,55,49,30.32,30.10,8,4,17,0.00
2013-12-12,20,16,10,11,2,-2,66,53,41,30.36,30.09,7,4,20,0.00
2013-12-13,27,19,15,16,8,2,74,61,48,30.41,30.07,6,3,98,0.00
2013-12-14,19,16,14,12,6,1,72,65,53,30.42,29.74,8,5,21,0.00
2013-12-15,25,21,16,17,12,3,78,68,55,29.91,29.67,8,3,17,0.00
2013-12-16,19,13,8,4,0,-6,62,55,48,30.18,29.91,4,2,11,0.00
2013-12-17,28,21,10,21,12,-2,74,67,58,30.14,29.92,4,2,10,0.00
2013-12-18,32,28,23,22,18,15,73,68,62,30.09,29.95,8,3,18,0.00
2013-12-19,40,35,29,30,26,18,79,68,60,30.06,27.77,7,3,17,0.11
2013-12-20,40,36,34,37,33,29,92,87,79,30.71,29.79,5,1,10,0.46
2013-12-21,46,36,32,44,34,29,94,90,87,29.90,29.73,8,2,17,0.46
2013-12-22,36,33,31,33,30,28,90,89,87,29.98,29.62,2,0,5,0.28
2013-12-23,36,32,24,33,28,-56,90,85,68,30.30,29.97,5,2,14,0.00
2013-12-24,26,20,9,19,11,-3,79,69,59,30.53,30.22,6,2,12,0.00
2013-12-25,27,15,3,16,5,-7,71,63,59,30.53,30.18,4,1,10,0.00
2013-12-26,32,27,18,25,18,6,82,69,58,30.30,30.06,5,2,16,0.00
2013-12-27,36,28,18,30,21,6,83,73,59,30.30,30.06,25,2,25,0.00
2013-12-28,41,38,35,32,30,28,81,73,70,30.12,29.94,10,4,24,0.01
2013-12-29,44,39,26,34,28,14,77,66,52,29.95,29.65,12,4,99,0.00
2013-12-30,26,20,18,14,5,1,64,53,44,30.24,29.84,11,4,23,0.00
2013-12-31,22,18,13,14,5,-2,73,57,47,30.27,29.97,8,3,26,0.00
2014-1-1,21,16,11,6,3,-2,66,56,46,30.42,30.26,7,3,14,0.00
2014-1-2,14,14,14,6,5,5,67,66,66,30.32,30.27,6,5,12,0.00